Location: Dehesa de la Cepeda
(40.6574°N, 4.3013°W)
Time: 21:33:00
(UTC+00:00)

Vanguard 3 - Pass Details

Date: 03 August 2021
Orbit: 510 x 3260 km, 33.3° (Epoch: 22 September)

Event Time Altitude Azimuth Distance (km) Brightness Sun altitude
Rises 19:52:15 0° 264° (W) 5,873 12.6 -4.6°
Reaches altitude 10° 19:55:37 10° 262° (W) 5,158 12.2 -5.2°
Maximum altitude 20:12:06 68° 184° (S) 3,327 10.1 -7.9°
Drops below altitude 10° 20:31:43 10° 107° (ESE) 5,989 10.9 -11.0°
Enters shadow 20:31:56 10° 107° (ESE) 6,030 11.0 -11.1°
